Regional Weather Roundup
Issued by NWS Midland/Odessa, TX

Home | Current Version | Previous Version | Text Only | Print | Product List | Glossary On
Versions: 1 2 3 4 5 6 7 8 9 10 11 12 13 14 15 16 17 18 19 20 21 22 23 24 25 26 27 28 29 30 31 32 33 34 35 36 37 38 39 40 41 42 43 44 45 46 47 48 49 50
000
ASUS44 KMAF 240510
RWRMAF
MIDLAND AREA WEATHER ROUNDUP
NATIONAL WEATHER SERVICE MIDLAND TX
1200 AM CDT WED MAY 24 2017

...IN SOUTHWEST TEXAS AND SOUTHEAST NEW MEXICO...

CITY           SKY/WX    TMP DP  RH WIND       PRES   REMARKS
ALPINE         CLEAR     53  45  73 E3        30.17S
ANDREWS        FAIR      55  40  57 CALM      30.07S
ARTESIA        CLEAR     57  32  38 CALM      30.09R
BIG SPRING     PTCLDY    54  46  74 CALM      30.05S
CARLSBAD       CLEAR     58  44  60 S7        30.06R
DRYDEN           N/A     60  52  74 CALM      30.05R
FORT STOCKTON  CLEAR     56  46  69 S7        30.07S
GUAD PASS      CLEAR     53  38  56 NE18      30.14R
HOBBS          CLEAR     54  34  47 CALM      30.10R
MARFA          CLEAR     53  44  71 NE9       30.14R
MIDLAND AIRPK  CLEAR     58  43  56 SW3       30.06R
MIDLAND INTL   CLEAR     58  41  53 CALM      30.05R
ODESSA         CLEAR     58  43  57 W3        30.06R
PECOS          CLEAR     58  38  48 SE7       30.06R
PRESIDIO       FAIR      67  47  48 NE13G24   30.04R
SEMINOLE       CLEAR     52  38  58 CALM      30.09S
SNYDER         CLEAR     54  46  75 SW7       30.02S
WINK           CLEAR     57  38  48 S6        30.05R
$$
...OTHER STATIONS IN TEXAS...

CITY           SKY/WX    TMP DP  RH WIND       PRES   REMARKS
ABILENE          N/A     51  50  96 MISG      29.98F
AMARILLO       CLEAR     50  35  56 NW8       30.05S
AUSTIN         CLEAR     62  51  67 NW10      29.96S
BROWNSVILLE    CLOUDY    80  75  84 N3        29.84R
CORPUS CHRISTI CLOUDY    68  60  75 N13       29.92R
DALLAS FTW     CLEAR     62  52  69 W13       29.89F
DEL RIO        CLEAR     61  54  77 CALM      30.01R
EL PASO        CLEAR     68  37  32 E13       30.02R
HOUSTON INT    PTCLDY    65  60  84 NW10      29.90S
LUBBOCK        CLOUDY    56  43  61 W6        30.05R
SAN ANGELO     CLEAR     51  47  86 S5        30.00F
SAN ANTONIO    PTCLDY    64  50  60 N10       29.97S
WACO           CLEAR     56  53  90 W6        29.94F
WICHITA FALLS  NOT AVBL
$$
...OTHER LOCATIONS IN NEW MEXICO...

CITY           SKY/WX    TMP DP  RH WIND       PRES   REMARKS
ALAMOGORDO     CLEAR     64  36  34 N5        30.03R
ALBUQUERQUE    CLEAR     68  21  16 NW8       30.09R
CANNON AFB     PTCLDY    50  43  76 NE5       30.11S
CLOVIS         CLOUDY    54  37  54 N5        30.10S
HOLLOMAN AFB   CLEAR     65  37  34 CALM      30.06R
ROSWELL        CLEAR     58  32  37 W6        30.08R
RUIDOSO        CLEAR     45  30  57 SE5       30.22S
SANTA FE       CLEAR     53  36  52 SE16      30.14R
TRUTH OR CONSE CLEAR     70  35  27 NE3       30.04R
TUCUMCARI      MOCLDY    54  44  69 SW3       30.08R
$$




USA.gov is the U.S. government's official web portal to all federal, state and local government web resources and services.